This is the latest recevied weather packets stored in our database for station/object N3EDS. If no packets are shown the sender has not sent any weather packets the latest 10 day(s).
| Time | Temp. | Humidity | Pressure | Rain* | Wind** | Luminosity | Snow |
|---|---|---|---|---|---|---|---|
| 1777920773 | 20.56° C | 49% | 1010.7 hPa | 0 mm | - | 446 W/m² | - |
| 1777920469 | 20° C | 49% | 1010.7 hPa | 0 mm | - | 653 W/m² | - |
| 1777920164 | 19.44° C | 51% | 1010.8 hPa | 0 mm | - | 322 W/m² | - |
| 1777919860 | 20.56° C | 49% | 1010.6 hPa | 0 mm | - | 282 W/m² | - |
| 1777919557 | 20.56° C | 53% | 1010.9 hPa | 0 mm | - | 965 W/m² | - |
| 1777919256 | 19.44° C | 51% | 1010.9 hPa | 0 mm | - | 334 W/m² | - |
| 1777918953 | 18.33° C | 51% | 1011.2 hPa | 0 mm | - | 977 W/m² | - |
| 1777918650 | 18.33° C | 52% | 1011.3 hPa | 0 mm | - | 215 W/m² | - |
| 1777918347 | 18.33° C | 52% | 1011.4 hPa | 0 mm | - | 256 W/m² | - |
| 1777918046 | 18.33° C | 53% | 1011.2 hPa | 0 mm | - | 347 W/m² | - |
| 1777917745 | 18.33° C | 51% | 1011.2 hPa | 0 mm | - | 283 W/m² | - |
| 1777917442 | 18.89° C | 49% | 1011.1 hPa | 0 mm | - | 302 W/m² | - |
| 1777917138 | 18.89° C | 50% | 1011.1 hPa | 0 mm | - | 233 W/m² | - |
| 1777916837 | 18.33° C | 52% | 1011.2 hPa | 0 mm | - | 357 W/m² | - |
| 1777916534 | 18.89° C | 50% | 1011.3 hPa | 0 mm | - | 227 W/m² | - |
| 1777916230 | 19.44° C | 48% | 1011.3 hPa | 0 mm | - | 476 W/m² | - |
| 1777915928 | 18.89° C | 48% | 1011.4 hPa | 0 mm | - | 1065 W/m² | - |
| 1777915624 | 18.89° C | 48% | 1011.3 hPa | 0 mm | - | 271 W/m² | - |
| 1777915320 | 18.33° C | 50% | 1011.4 hPa | 0 mm | - | 874 W/m² | - |
| 1777915017 | 18.89° C | 49% | 1011.5 hPa | 0 mm | - | 239 W/m² | - |
| 1777914714 | 18.89° C | 48% | 1011.7 hPa | 0 mm | - | 1013 W/m² | - |
| 1777914410 | 18.89° C | 47% | 1011.6 hPa | 0 mm | - | 519 W/m² | - |
| 1777914109 | 18.89° C | 50% | 1011.8 hPa | 0 mm | - | 1024 W/m² | - |
| 1777913804 | 18.33° C | 50% | 1011.6 hPa | 0 mm | - | 458 W/m² | - |
| 1777913501 | 18.33° C | 48% | 1012.1 hPa | 0 mm | - | 253 W/m² | - |
* Rain latest hour (hover to see other rain measurements)
** Current wind speed in m/s (hover to see current wind gust speed)